sat.trackr.live / text

‹ back to catalog

STARLINK-34352

NORAD 64257 · 2025-120B

PAYLOAD ACTIVE UNKNOWN

§ Identity

Operator
Country
US
Launch date
2025-06-04
Launch site
AFWTR
Launch vehicle
Mass (kg)
RCS (m²)

Purposes: comms

External: N2YO · Heavens-Above · Gunter

§ Orbital elements

Epoch: 2026-09-20T08:30:57.428640Z

Period
93.85 min
Inclination
53.1593°
Eccentricity
0.0001228
Mean motion
15.34405999 rev/d
Perigee alt
461.8 km
Apogee alt
463.5 km
Semi-major
6,840.8 km
B*
2.3541e-4
RAAN
290.1283°
Arg perigee
79.2112°
Mean anomaly
280.9029°
Rev number
7,370

§ Raw data

STARLINK-343521 64257U 25120B   26263.35483135  .00007587  00000+0  23541-3 0  99992 64257  53.1593 290.1283 0001228  79.2112 280.9029 15.34405999 73708

JSON: /api/v1/satellites/64257 · /tle

For live sub-satellite position, see the globe view (requires WebGL).

§ Visibility from observer

Set your observer location to see the next 7 days of passes ≥ 10°. The values pass through the URL so the page stays shareable.

No JS? Fill the form by hand. The geolocation button needs JavaScript.